Location: Katwijk
(52.2000°N, 4.4170°E)
Time: 00:08:15
(UTC+02:00)

ISS - Visible Passes

Search period start: 29 September 2016 00:00
Search period end: 09 October 2016 00:00
Orbit: 400 x 410 km, 51.6° (Epoch: 29 September)

Date Brightness Start Highest point End Pass type
(mag) Time Alt. Az. Time Alt. Az. Time Alt. Az.
29 Sep -0.9 21:16:03 10° SSW 21:16:35 13° S 21:16:35 13° S visible
30 Sep -1.3 20:24:58 10° S 20:26:39 13° SE 20:27:03 13° SE visible
30 Sep -0.5 21:59:25 10° SW 21:59:44 12° SW 21:59:44 12° SW visible
01 Oct -2.3 21:07:33 10° SW 21:10:00 31° S 21:10:00 31° S visible
02 Oct -1.9 20:15:54 10° SSW 20:18:33 23° SSE 20:20:08 16° ESE visible
02 Oct -1.2 21:51:27 10° WSW 21:52:48 23° WSW 21:52:48 23° WSW visible
03 Oct -3.2 20:59:24 10° WSW 21:02:35 52° SSE 21:02:50 50° SE visible
04 Oct -2.6 20:07:27 10° SW 20:10:31 38° SSE 20:12:46 16° E visible
04 Oct -1.7 21:43:33 10° W 21:45:26 32° WSW 21:45:26 32° WSW visible
05 Oct -3.4 20:51:24 10° WSW 20:54:39 71° SSE 20:55:18 52° ESE visible
05 Oct 0.1 22:27:50 10° W 22:27:57 11° W 22:27:57 11° W visible
06 Oct -3.1 19:59:18 10° WSW 20:02:30 57° SSE 20:05:07 14° E visible
06 Oct -1.9 21:35:39 10° W 21:37:46 37° W 21:37:46 37° W visible
07 Oct -3.4 20:43:27 10° W 20:46:43 82° S 20:47:33 47° E visible
07 Oct 0.0 22:19:55 10° W 22:20:12 12° W 22:20:12 12° W visible
08 Oct -3.3 19:51:16 10° WSW 19:54:31 75° S 19:57:19 13° E visible
08 Oct -2.1 21:27:42 10° W 21:29:58 40° W 21:29:58 40° W visible
